Weather History for Haines, AK

Change the Weather History Date:

Monday, August 26, 2013

  Actual Average Record
Temperature  
Mean Temperature 56 °F -  
Max Temperature 60 °F 58 °F 81 °F (1981)
Min Temperature 52 °F 48 °F 42 °F (1978)
Degree Days  
Heating Degree Days 10    
Growing Degree Days 6 (Base 50)    
Moisture  
Dew Point 53 °F    
Average Humidity 93    
Maximum Humidity 100    
Minimum Humidity 83    
Precipitation  
Precipitation 0.12 in - - ()
Sea Level Pressure  
Sea Level Pressure 29.78 in    
Wind  
Wind Speed 6 mph (ESE)    
Max Wind Speed 10 mph    
Max Gust Speed -    
Visibility 9 miles    
Events Rain    
Averages and records for this station are not official NWS values.
T = Trace of Precipitation, MM = Missing Value Source: NWS Daily Summary

Daily Weather History Graph

Daily Weather History Graph

Search for Another Location

Airport:

Trip Planner

Search our weather history database for the weather conditions in past years. The results will help you decide how hot, cold, wet, or windy it might be!

Date:

Astronomy

Aug. 26, 2013 Rise Set
Actual Time 5:46 AM AKDT 8:19 PM AKDT
Civil Twilight 5:00 AM AKDT 9:04 PM AKDT
Nautical Twilight 4:00 AM AKDT 10:04 PM AKDT
Astronomical Twilight 2:36 AM AKDT 11:24 PM AKDT
Moon 9:52 PM AKDT (8/26) 1:36 PM AKDT (8/26)
Length of Visible Light 16h 03m
Length of Day
14h 33m
Waning Gibbous, 65% of the Moon is Illuminated
Aug 26
Waning Gibbous
Aug 28
Last Quarter
Sep 5
New
Sep 12
First Quarter
Sep 19
Full

Hourly Weather History & Observations

Time (AKDT) Temp. Dew Point Humidity Pressure Visibility Wind Dir Wind Speed Gust Speed Precip Events Conditions
12:54 AM 55.0 °F 53.1 °F 93% 29.77 in 10.0 mi WNW 9.2 mph - N/A   Mostly Cloudy
1:54 AM 55.9 °F 54.0 °F 93% 29.78 in 10.0 mi NW 3.5 mph - 0.00 in Rain Light Rain
2:54 AM 54.0 °F 53.1 °F 97% 29.76 in 7.0 mi West 10.4 mph - 0.03 in Rain Rain
3:54 AM 54.0 °F 53.1 °F 97% 29.77 in 10.0 mi WNW 8.1 mph - 0.01 in Rain Light Rain
4:54 AM 53.1 °F 52.0 °F 96% 29.78 in 6.0 mi Calm Calm - 0.03 in Rain Light Rain
5:10 AM 53.6 °F 51.8 °F 94% 29.77 in 7.0 mi East 3.5 mph - 0.00 in Rain Light Rain
5:20 AM 53.6 °F 51.8 °F 94% 29.77 in 9.0 mi ESE 3.5 mph - 0.00 in Rain Light Rain
5:54 AM 52.0 °F 52.0 °F 100% 29.78 in 6.0 mi ESE 3.5 mph - 0.01 in Rain Light Rain
6:45 AM 53.6 °F 51.8 °F 94% 29.77 in 5.0 mi ESE 5.8 mph - 0.01 in Rain Light Rain
6:54 AM 53.1 °F 52.0 °F 96% 29.78 in 4.0 mi East 4.6 mph - 0.01 in Rain Light Rain
7:05 AM 53.6 °F 51.8 °F 94% 29.77 in 2.5 mi East 4.6 mph - 0.01 in Rain Light Rain
7:14 AM 53.6 °F 51.8 °F 94% 29.77 in 4.0 mi East 4.6 mph - 0.01 in Rain Light Rain
7:49 AM 53.6 °F 51.8 °F 94% 29.77 in 10.0 mi Calm Calm - 0.01 in   Overcast
7:54 AM 53.1 °F 52.0 °F 96% 29.78 in 10.0 mi Calm Calm - 0.01 in   Overcast
8:54 AM 54.0 °F 53.1 °F 97% 29.79 in 10.0 mi ESE 3.5 mph - 0.01 in   Overcast
9:54 AM 55.0 °F 54.0 °F 96% 29.79 in 10.0 mi ESE 4.6 mph - 0.01 in Rain Light Rain
10:12 AM 53.6 °F 51.8 °F 94% 29.79 in 7.0 mi SE 5.8 mph - 0.00 in Rain Light Rain
10:39 AM 53.6 °F 53.6 °F 100% 29.79 in 9.0 mi SE 6.9 mph - 0.00 in Rain Light Rain
10:54 AM 55.0 °F 53.1 °F 93% 29.80 in 10.0 mi ESE 5.8 mph - 0.00 in   Overcast
11:14 AM 53.6 °F 53.6 °F 100% 29.79 in 10.0 mi SE 9.2 mph - N/A   Overcast
11:54 AM 57.0 °F 54.0 °F 89% 29.80 in 10.0 mi Variable 5.8 mph - N/A   Overcast
12:54 PM 57.0 °F 54.0 °F 89% 29.80 in 10.0 mi ESE 6.9 mph - N/A   Overcast
1:54 PM 57.0 °F 54.0 °F 89% 29.79 in 10.0 mi SE 6.9 mph - 0.00 in   Overcast
2:54 PM 59.0 °F 55.0 °F 87% 29.79 in 6.0 mi East 5.8 mph - 0.00 in Rain Light Rain
3:54 PM 57.0 °F 54.0 °F 89% 29.78 in 10.0 mi Variable 3.5 mph - 0.00 in   Overcast
4:54 PM 59.0 °F 54.0 °F 83% 29.78 in 10.0 mi ESE 3.5 mph - N/A   Mostly Cloudy
5:54 PM 57.9 °F 54.0 °F 87% 29.78 in 10.0 mi East 3.5 mph - N/A   Overcast
6:54 PM 57.9 °F 55.9 °F 93% 29.76 in 10.0 mi SE 3.5 mph - N/A   Overcast
7:54 PM 55.0 °F 53.1 °F 93% 29.77 in 10.0 mi Calm Calm - N/A   Overcast
8:54 PM 55.9 °F 54.0 °F 93% 29.77 in 10.0 mi Calm Calm - N/A   Overcast
9:54 PM 57.0 °F 54.0 °F 89% 29.77 in 10.0 mi WNW 8.1 mph - N/A   Overcast
10:54 PM 57.0 °F 54.0 °F 89% 29.76 in 10.0 mi WNW 10.4 mph - N/A   Overcast
11:54 PM 57.0 °F 54.0 °F 89% 29.76 in 10.0 mi NW 8.1 mph - N/A   Mostly Cloudy